Content
SEND FEEDBACK

Daily
Averages
Monthly
Summary
United States of America

ALPINE MEADOWS, CALIFORNIA


Home > North America > United States > California
Elevation: 6230 feet     Latitude: 39 12N     Longitude: 120 14W

WEATHER
 
SELECT A DAY
Number of Records: 290,719;   Date Range: 1/1/95 - 12/26/14
 
SHARE

PRINT THIS DATA

[ ← Previous Day ]
WEATHER ALMANAC - SEPTEMBER 25, 2013
[ Next Day → ]
[ °C ]   °F
Weather ElementAverageHighLow
Temperature37.9 °F50 °F (2:45 pm)32 °F (6:50 am)
Dewpoint29.4 °F32 °F (5:15 am)19.4 °F (2:45 pm)
Humidity75.3 %100 % (7:55 pm)30 % (2:45 pm)
Barometer29.90 in29.92 in (12:55 am)29.86 in (3:45 pm)
Wind Speed5.6 mph15 mph (2:55 am)
Wind Gust24.2 mph (12:55 am)
Weather ElementAverage
Visibility9.4 mi
Wind DirectionSSE (158.7 °)

Weather ElementTotal
Precipitation0.24 in
Heating Degree Days24 (Base 65)
Averaged from 46 records on September 25, 2013
WEATHER CONDITIONS BREAKOUT
WIND DIRECTION BREAKOUT
WEATHER BY HOUR - SEPTEMBER 25, 2013
[ °C ]   °F
Local TimeTemperatureDewpointHumidityBarometerVisibilityWind DirectionWind SpeedGust SpeedPrecipitationEventsConditions
12:55 AM44.6 °F28.4 °F53 %29.92 in10.0 miWSW (250°)8.1 mph24.2 mphPartly Cloudy
1:15 AM44.6 °F30.2 °F57 %29.92 in10.0 miWSW (250°)9.2 mph17.3 mphMostly Cloudy
1:35 AM44.6 °F30.2 °F57 %29.91 in10.0 miWSW (250°)10.4 mph17.3 mphMostly Cloudy
1:55 AM42.8 °F30.2 °F61 %29.91 in10.0 miWSW (240°)13.8 mphScattered Clouds
2:35 AM41.0 °F28.4 °F61 %29.90 in10.0 miWSW (250°)11.5 mphClear
2:55 AM41.0 °F30.2 °F65 %29.89 in8.0 miWSW (240°)15.0 mphRainLight Rain
3:15 AM39.2 °F30.2 °F70 %29.89 in10.0 miSW (230°)10.4 mphClear
3:35 AM39.2 °F28.4 °F65 %29.89 in10.0 miWest (260°)3.5 mphClear
3:55 AM39.2 °F28.4 °F65 %29.89 in10.0 miESE (120°)4.6 mphPartly Cloudy
4:15 AM39.2 °F30.2 °F70 %29.88 in10.0 miWSW (250°)3.5 mphMostly Cloudy
4:35 AM39.2 °F30.2 °F70 %29.88 in10.0 miSSW (210°)4.6 mphMostly Cloudy
4:55 AM37.4 °F28.4 °F70 %29.88 in10.0 miWSW (250°)3.5 mphScattered Clouds
5:15 AM39.2 °F32.0 °F75 %29.89 in10.0 miWest (270°)13.8 mph21.9 mphMostly Cloudy
5:35 AM39.2 °F32.0 °F75 %29.89 in10.0 miWest (280°)5.8 mphOvercast
5:55 AM37.4 °F32.0 °F81 %29.89 in10.0 miWNW (290°)5.8 mphScattered Clouds
6:15 AM35.6 °F32.0 °F87 %29.89 in10.0 miCalmPartly Cloudy
6:35 AM35.6 °F32.0 °F87 %29.89 in10.0 miWest (260°)5.8 mphPartly Cloudy
6:50 AM32.0 °F28.4 °F87 %29.90 in10.0 miCalmMostly Cloudy
7:55 AM37.4 °F30.2 °F75 %29.91 in10.0 miCalmScattered Clouds
8:55 AM42.8 °F28.4 °F57 %29.91 in10.0 miNW (310°)4.6 mphMostly Cloudy
10:55 AM46.4 °F23.0 °F40 %29.91 in10.0 miWest (280°)12.7 mph18.4 mphMostly Cloudy
11:55 AM46.4 °F21.2 °F37 %29.90 in10.0 miWNW (290°)8.1 mphMostly Cloudy
12:45 PM48.2 °F21.2 °F34 %29.89 in10.0 miWNW (290°)10.4 mph18.4 mphMostly Cloudy
1:50 PM48.2 °F21.2 °F34 %29.88 in10.0 miWest (270°)15.0 mph20.7 mphMostly Cloudy
2:45 PM50.0 °F19.4 °F30 %29.87 in10.0 miWSW (250°)15.0 mph21.9 mphMostly Cloudy
3:45 PM50.0 °F19.4 °F30 %29.86 in10.0 miSW (230°)12.7 mph18.4 mphMostly Cloudy
5:45 PM35.6 °F32.0 °F87 %29.91 in9.0 miSE (130°)3.5 mphMostly Cloudy
5:55 PM35.6 °F32.0 °F87 %29.91 in9.0 miENE (70°)3.5 mphSnowLight Snow
6:15 PM35.6 °F30.2 °F81 %29.90 in10.0 miNNE (30°)4.6 mphRainLight Rain
6:35 PM35.6 °F30.2 °F81 %29.90 in10.0 miENE (60°)3.5 mphMostly Cloudy
6:55 PM35.6 °F30.2 °F81 %29.90 in10.0 miCalmScattered Clouds
7:15 PM35.6 °F32.0 °F87 %29.89 in10.0 miCalmOvercast
7:35 PM33.8 °F32.0 °F93 %29.90 in2.5 miNorth0.01 inOvercast
7:55 PM32.0 °F32.0 °F100 %29.91 in1.0 miWNW (300°)4.6 mph0.01 inSnowLight Snow
8:15 PM32.0 °F32.0 °F100 %29.91 in0.8 miNE (50°)11.5 mph17.3 mph0.03 inSnowLight Snow
8:35 PM32.0 °F30.2 °F93 %29.92 in10.0 miCalm0.06 inSnowLight Snow
8:55 PM32.0 °F32.0 °F100 %29.92 in10.0 miCalm0.08 inMostly Cloudy
9:15 PM32.0 °F32.0 °F100 %29.92 in10.0 miSW (220°)3.5 mph0.01 inOvercast
9:35 PM32.0 °F32.0 °F100 %29.92 in10.0 miCalm0.02 inOvercast
9:55 PM32.0 °F30.2 °F93 %29.92 in10.0 miNorth (360°)3.5 mph0.02 inMostly Cloudy
10:15 PM32.0 °F32.0 °F100 %29.92 in10.0 miESE (120°)3.5 mphMostly Cloudy
10:35 PM32.0 °F32.0 °F100 %29.91 in10.0 miCalmMostly Cloudy
10:55 PM32.0 °F32.0 °F100 %29.92 in10.0 miCalmOvercast
11:15 PM32.0 °F32.0 °F100 %29.92 in10.0 miCalmOvercast
11:35 PM32.0 °F30.2 °F93 %29.92 in10.0 miCalmOvercast
11:55 PM32.0 °F30.2 °F93 %29.92 in10.0 miSE (140°)4.6 mphOvercast
Hourly data recorded from KTRK, located miles away from Alpine Meadows, California







STORIES FROM OUR PARTNERS